When you browse on this site, cookies collect data to enhance your experience and personalize the content and advertising you see.
Visit our Privacy Policy to learn more. By continuing to use the site, you agree to this use of cookies and data.
  • In Czech Republic
  • List of Countries
  • For 7 days
  • Water Temperature
  • Satellite Maps
  • Weather Map
  • Weather Widgets
  • user-avatar
    Login

    Hourly Weather Sidi Bu-l-Abbas

    Today, 14 December, Friday

    Time Temperature Precipitation Wind Pressure Humidity
    00:00 +8°C° 0 mm 13 mps 718 mmHg 71%
    01:00 +8°C° 0.1 mm 14 mps 719 mmHg 70%
    02:00 +8°C° 0.1 mm 14 mps 719 mmHg 70%
    03:00 +8°C° 0.1 mm 15 mps 719 mmHg 69%
    04:00 +8°C° 0 mm 14 mps 720 mmHg 70%
    05:00 +8°C° 0 mm 13 mps 720 mmHg 70%
    06:00 +7°C° 0 mm 13 mps 720 mmHg 71%
    07:00 +8°C° 0 mm 13 mps 720 mmHg 70%
    08:00 +8°C° 0 mm 13 mps 721 mmHg 68%
    09:00 +9°C° 0 mm 14 mps 722 mmHg 67%
    10:00 +9°C° 0 mm 13 mps 722 mmHg 64%
    11:00 +10°C° 0 mm 13 mps 722 mmHg 61%
    12:00 +10°C° 0 mm 12 mps 723 mmHg 59%
    13:00 +11°C° 0 mm 11 mps 723 mmHg 60%
    14:00 +11°C° 0 mm 11 mps 723 mmHg 60%
    15:00 +11°C° 0 mm 10 mps 723 mmHg 61%
    16:00 +10°C° 0.1 mm 9 mps 723 mmHg 66%
    17:00 +10°C° 0.1 mm 7 mps 724 mmHg 70%
    18:00 +9°C° 0.1 mm 6 mps 724 mmHg 75%
    19:00 +9°C° 0 mm 5 mps 725 mmHg 77%
    20:00 +8°C° 0 mm 5 mps 725 mmHg 79%
    21:00 +8°C° 0 mm 4 mps 725 mmHg 81%
    22:00 +8°C° 0 mm 4 mps 726 mmHg 82%
    23:00 +8°C° 0 mm 4 mps 726 mmHg 83%

    Tomorrow, 15 December, Saturday

    Time Temperature Precipitation Wind Pressure Humidity
    00:00 +8°C° 0 mm 4 mps 726 mmHg 84%
    01:00 +7°C° 0 mm 4 mps 726 mmHg 84%
    02:00 +7°C° 0 mm 4 mps 726 mmHg 85%
    03:00 +7°C° 0 mm 4 mps 726 mmHg 85%
    04:00 +7°C° 0 mm 4 mps 727 mmHg 84%
    05:00 +8°C° 0 mm 3 mps 727 mmHg 83%
    06:00 +7°C° 0 mm 3 mps 727 mmHg 82%
    07:00 +8°C° 0 mm 3 mps 727 mmHg 75%
    08:00 +10°C° 0 mm 3 mps 727 mmHg 68%
    09:00 +11°C° 0 mm 3 mps 728 mmHg 61%
    10:00 +12°C° 0 mm 3 mps 728 mmHg 54%
    11:00 +13°C° 0 mm 3 mps 728 mmHg 46%
    12:00 +16°C° 0 mm 3 mps 728 mmHg 38%
    13:00 +16°C° 0 mm 3 mps 727 mmHg 37%
    14:00 +17°C° 0 mm 3 mps 727 mmHg 35%
    15:00 +17°C° 0 mm 3 mps 727 mmHg 34%
    16:00 +16°C° 0 mm 2 mps 727 mmHg 39%
    17:00 +14°C° 0 mm 1 mps 727 mmHg 45%
    18:00 +12°C° 0 mm 0 mps 727 mmHg 51%
    19:00 +13°C° 0 mm 1 mps 727 mmHg 49%
    20:00 +13°C° 0 mm 1 mps 727 mmHg 47%
    21:00 +13°C° 0 mm 1 mps 727 mmHg 44%
    22:00 +13°C° 0 mm 1 mps 727 mmHg 43%
    23:00 +13°C° 0 mm 2 mps 726 mmHg 42%

    Day after tomorrow, 16 December, Sunday

    Time Temperature Precipitation Wind Pressure Humidity
    00:00 +13°C° 0 mm 2 mps 726 mmHg 41%
    01:00 +13°C° 0 mm 2 mps 726 mmHg 41%
    02:00 +13°C° 0 mm 2 mps 726 mmHg 42%
    03:00 +12°C° 0 mm 2 mps 725 mmHg 42%
    04:00 +12°C° 0 mm 2 mps 725 mmHg 42%
    05:00 +12°C° 0 mm 2 mps 725 mmHg 42%
    06:00 +12°C° 0 mm 2 mps 725 mmHg 43%
    07:00 +14°C° 0 mm 2 mps 725 mmHg 41%
    08:00 +14°C° 0 mm 3 mps 725 mmHg 40%
    09:00 +16°C° 0 mm 3 mps 726 mmHg 38%
    10:00 +18°C° 0 mm 3 mps 726 mmHg 34%
    11:00 +20°C° 0 mm 3 mps 725 mmHg 30%
    12:00 +21°C° 0 mm 3 mps 725 mmHg 26%
    13:00 +21°C° 0 mm 4 mps 725 mmHg 27%
    14:00 +21°C° 0 mm 4 mps 725 mmHg 28%
    15:00 +21°C° 0 mm 4 mps 724 mmHg 28%
    16:00 +19°C° 0 mm 4 mps 725 mmHg 37%
    17:00 +17°C° 0 mm 3 mps 725 mmHg 45%
    18:00 +14°C° 0 mm 3 mps 725 mmHg 53%
    19:00 +14°C° 0 mm 3 mps 725 mmHg 53%
    20:00 +13°C° 0 mm 3 mps 726 mmHg 54%
    21:00 +13°C° 0 mm 3 mps 726 mmHg 54%
    22:00 +13°C° 0 mm 3 mps 726 mmHg 54%
    23:00 +13°C° 0 mm 3 mps 726 mmHg 53%

    17 December, Monday

    Time Temperature Precipitation Wind Pressure Humidity
    00:00 +12°C° 0 mm 3 mps 726 mmHg 53%
    01:00 +13°C° 0 mm 2 mps 726 mmHg 55%
    02:00 +13°C° 0 mm 2 mps 726 mmHg 57%
    03:00 +12°C° 0 mm 2 mps 726 mmHg 59%
    04:00 +12°C° 0 mm 2 mps 726 mmHg 62%
    05:00 +12°C° 0 mm 2 mps 726 mmHg 65%
    06:00 +10°C° 0 mm 2 mps 726 mmHg 68%
    07:00 +13°C° 0 mm 1 mps 727 mmHg 65%
    08:00 +14°C° 0 mm 1 mps 727 mmHg 62%
    09:00 +16°C° 0 mm 1 mps 728 mmHg 59%
    10:00 +16°C° 0 mm 2 mps 728 mmHg 58%
    11:00 +17°C° 0 mm 2 mps 728 mmHg 58%
    12:00 +18°C° 0 mm 2 mps 728 mmHg 58%
    13:00 +17°C° 0 mm 2 mps 727 mmHg 58%
    14:00 +17°C° 0 mm 2 mps 727 mmHg 58%
    15:00 +17°C° 0 mm 2 mps 727 mmHg 58%
    16:00 +16°C° 0 mm 2 mps 727 mmHg 64%
    17:00 +15°C° 0 mm 2 mps 727 mmHg 70%
    18:00 +14°C° 0 mm 2 mps 727 mmHg 76%
    19:00 +14°C° 0 mm 1 mps 728 mmHg 77%
    20:00 +13°C° 0 mm 1 mps 728 mmHg 78%
    21:00 +13°C° 0 mm 1 mps 728 mmHg 80%
    22:00 +13°C° 0 mm 1 mps 728 mmHg 79%
    23:00 +12°C° 0 mm 2 mps 728 mmHg 77%

    18 December, Tuesday

    Time Temperature Precipitation Wind Pressure Humidity
    00:00 +12°C° 0 mm 2 mps 727 mmHg 76%
    01:00 +12°C° 0 mm 2 mps 727 mmHg 75%
    02:00 +12°C° 0 mm 2 mps 727 mmHg 73%
    03:00 +12°C° 0 mm 2 mps 726 mmHg 71%
    04:00 +12°C° 0 mm 2 mps 726 mmHg 69%
    05:00 +10°C° 0 mm 2 mps 726 mmHg 68%
    06:00 +10°C° 0 mm 2 mps 726 mmHg 66%
    07:00 +13°C° 0 mm 2 mps 727 mmHg 59%
    08:00 +14°C° 0 mm 2 mps 727 mmHg 53%
    09:00 +15°C° 0 mm 2 mps 728 mmHg 46%
    10:00 +17°C° 0 mm 2 mps 727 mmHg 41%
    11:00 +19°C° 0 mm 2 mps 727 mmHg 36%
    12:00 +20°C° 0 mm 2 mps 727 mmHg 30%
    13:00 +20°C° 0 mm 2 mps 726 mmHg 31%
    14:00 +21°C° 0 mm 2 mps 726 mmHg 31%
    15:00 +21°C° 0 mm 3 mps 726 mmHg 32%
    16:00 +19°C° 0 mm 2 mps 726 mmHg 41%
    17:00 +18°C° 0 mm 1 mps 726 mmHg 49%
    18:00 +14°C° 0 mm 1 mps 726 mmHg 58%
    19:00 +14°C° 0 mm 1 mps 726 mmHg 58%
    20:00 +14°C° 0 mm 1 mps 726 mmHg 58%
    21:00 +13°C° 0 mm 1 mps 726 mmHg 58%
    22:00 +13°C° 0 mm 1 mps 726 mmHg 58%
    23:00 +13°C° 0 mm 1 mps 726 mmHg 57%

    19 December, Wednesday

    Time Temperature Precipitation Wind Pressure Humidity
    00:00 +13°C° 0 mm 1 mps 726 mmHg 56%
    01:00 +12°C° 0 mm 1 mps 726 mmHg 55%
    02:00 +12°C° 0 mm 1 mps 725 mmHg 54%
    03:00 +12°C° 0 mm 2 mps 725 mmHg 53%
    04:00 +12°C° 0 mm 2 mps 725 mmHg 54%
    05:00 +12°C° 0 mm 1 mps 725 mmHg 54%
    06:00 +11°C° 0 mm 1 mps 725 mmHg 55%
    07:00 +13°C° 0 mm 2 mps 726 mmHg 51%
    08:00 +14°C° 0 mm 2 mps 726 mmHg 46%
    09:00 +16°C° 0 mm 2 mps 727 mmHg 42%
    10:00 +17°C° 0 mm 2 mps 726 mmHg 39%
    11:00 +18°C° 0 mm 2 mps 726 mmHg 35%
    12:00 +20°C° 0 mm 2 mps 726 mmHg 32%
    13:00 +20°C° 0 mm 2 mps 726 mmHg 31%
    14:00 +20°C° 0 mm 2 mps 725 mmHg 31%
    15:00 +20°C° 0 mm 2 mps 725 mmHg 31%
    16:00 +18°C° 0 mm 2 mps 725 mmHg 38%
    17:00 +18°C° 0 mm 1 mps 725 mmHg 45%
    18:00 +15°C° 0 mm 1 mps 725 mmHg 52%
    19:00 +14°C° 0 mm 1 mps 725 mmHg 55%
    20:00 +14°C° 0 mm 1 mps 725 mmHg 58%
    21:00 +13°C° 0 mm 1 mps 725 mmHg 60%
    22:00 +13°C° 0 mm 1 mps 725 mmHg 59%
    23:00 +13°C° 0 mm 1 mps 725 mmHg 58%
    Show more